Regional Weather Roundup
Issued by NWS Northern Indiana

Home | Current Version | Previous Version | Text Only | Print | Product List | Glossary On
Versions: 1 2 3 4 5 6 7 8 9 10 11 12 13 14 15 16 17 18 19 20 21 22 23 24 25 26 27 28 29 30 31 32 33 34 35 36 37 38 39 40 41 42 43 44 45 46 47 48 49 50
000
ASUS43 KIWX 251510
RWRIWX

KIWX WEATHER ROUNDUP
NATIONAL WEATHER SERVICE NORTHERN INDIANA
1000 AM EST THU DEC 25 2014

NOTE: "FAIR" INDICATES FEW OR NO CLOUDS BELOW 12,000 FEET WITH NO
SIGNIFICANT WEATHER AND/OR OBSTRUCTIONS TO VISIBILITY.

* THESE STATIONS ARE NOT UNDER NWS QUALITY CONTROL. THEY ALSO MAY NOT
  REPORT WEATHER SUCH AS PRECIPITATION OR FOG.

INZ001>027-251600-
NORTHERN INDIANA

CITY           SKY/WX    TMP DP  RH WIND       PRES   REMARKS
GARY*          CLOUDY    36  27  69 W9        29.95
VALPARAISO     CLOUDY    34  28  79 SW14      29.96R WCI  25
MICHIGAN CITY* CLOUDY    34  27  75 SW14      29.95R WCI  24
LAPORTE*       CLOUDY    36  31  83 SW15G23   29.95R
KNOX*          CLOUDY    35  28  75 SW15G21   29.96R WCI  25
SOUTH BEND     CLOUDY    35  29  78 W17G24    29.95R WCI  25
GOSHEN         CLOUDY    35  29  78 SW12      29.95R WCI  27
MONTICELLO*    CLOUDY    35  31  85 SW12G20   30.00R WCI  27
LOGANSPORT*    CLOUDY    34  30  86 W15G21    30.01R WCI  24
ROCHESTER*     CLOUDY    36  32  87 W13G23    29.99R
WARSAW*        CLOUDY    34  30  86 W15       29.97R WCI  24
ANGOLA*        CLOUDY    36  30  80 W14       29.92R
FORT WAYNE     PTSUNNY   36  31  82 SW18G28   29.98R
HUNTINGTON*    CLOUDY    35  31  85 W12G21    29.99R WCI  26
PERU/GRISSOM   CLOUDY    35  35 100 SW15      30.00R WCI  26
MARION*        CLOUDY    35  31  86 SW13      30.01R WCI  26

$$
INZ028>050-251600-
CENTRAL INDIANA

CITY           SKY/WX    TMP DP  RH WIND       PRES   REMARKS
LAFAYETTE      CLOUDY    35  30  82 SW10      30.01R WCI  27
KOKOMO*        CLOUDY    36  30  80 W16G24    30.01R
MUNCIE*        CLOUDY    36  32  85 W13       30.02R
INDIANAPOLIS   CLOUDY    34  29  82 SW14      30.05R WCI  25

$$
MIZ043>046-050>051-056>058-064>065-071>073-077>080-251600-
SOUTHWEST LOWER MICHIGAN

CITY           SKY/WX    TMP DP  RH WIND       PRES   REMARKS
BATTLE CREEK   CLOUDY    37  29  72 W14       29.89R
BENTON HARBOR  CLOUDY    35  30  82 SW17G23   29.92R WCI  25
COLDWATER*     CLOUDY    36  32  88 MISG      29.91R
HILLSDALE*     CLOUDY    36  35  96 W9        29.88R
HOLLAND        CLOUDY    38  30  73 SW20G25   29.89R
GRAND RAPIDS   CLOUDY    36  29  75 W13       29.87R
KALAMAZOO      CLOUDY    36  29  75 W15       29.90R
STURGIS*       CLOUDY    34  28  80 SW17G26   29.92R WCI  23
THREE RIVERS*  CLOUDY    36  30  80 W13G18    29.92R

$$
OHZ001>008-015>018-024>025-251600-
NORTHWEST OHIO

CITY           SKY/WX    TMP DP  RH WIND       PRES   REMARKS
WAUSEON*       CLOUDY    37  34  87 SW16      29.91R
DEFIANCE       CLOUDY    38  32  79 SW9G18    29.95R
FINDLAY        LGT RAIN  38  34  85 W13       29.95R
TOLEDO EXPRESS CLOUDY    37  32  82 W17G26    29.92R
TOLEDO METCALF CLOUDY    39  31  72 W14G25    29.93R
LIMA           CLOUDY    38  32  79 SW15G25   29.97R

$$
AND FOR LAKE MICHIGAN COASTAL AND OPEN LAKE BUOY OBSERVATIONS

STATION/POSITION TEMP    WIND        PRES    VSBY  WAVE
                 AIR SEA DIR/SP/G                  HT/PER
                 (F)     (DEG/KT/KT) (MB)    (MI)  (FT/S)
CALUMET HARBOR    35     230/ 10/ 14 1012.4R
MICHIGAN CITY     35     200/ 20/ 24   N/A
SAINT JOSEPH      36     220/ 23/ 25 1013.2R

$$
&&



USA.gov is the U.S. government's official web portal to all federal, state and local government web resources and services.